Flag for France Weather past 2 weeks in Marigot, Saint Martin, France

Now
81 °F

Passing clouds.


Feels Like: 85 °F
Forecast: 80 / 87 °F
Wind: 3 mph from North

Location: Juliana Airport - Saint Maarten

Current Time: Sep 16, 2014 at 6:33:35 AM

Latest Report: Sep 16, 2014 at 6:00 AM


Visibility: N/A

Pressure: 29.98 "Hg

Humidity: 79%

Dew point: 73 °F

Location of MarigotLocation

Historic Weather in Marigot — Graph

°F

Marigot temperature yesterday

Maximum temperature yesterday: 88 °F (at 10:00 AM)
Minimum temperature yesterday: 81 °F (at 3:00 AM)
Average temperature yesterday: 84 °F

Past Weeks' High & Low Weather Summary

 TemperatureHumidityPressure
High90 °F (Sep 3, 3:00 PM)94% (Sep 4, 6:00 AM)30.07 "Hg (Sep 4, 6:00 AM)
Low77 °F (Sep 4, 6:00 AM)55% (Sep 3, 3:00 PM)29.92 "Hg (Sep 10, 4:00 PM)
Average84 °F72%29.99 "Hg
* Reported Sep 1 5:00 AM — Sep 16 5:00 AM, Marigot, Weather by CustomWeather, © 2014

Note: Actual official high and low records may vary slightly from our data, if they occured in-between our weather recording intervals... More about our weather records

Advertising

Marigot weather history for previous 24 hours

 ConditionsComfort  
Time TempWeatherWind HumidityBarometerVisibility
5:00 AM
Sep 16
81 °FPassing clouds.5 mph79%29.95 "HgN/A
3:00 AM81 °FPassing clouds.No wind84%29.98 "HgN/A
2:00 AM82 °FPassing clouds.3 mph79%29.98 "HgN/A
1:00 AM82 °FPassing clouds.3 mph79%30.01 "HgN/A
12:00 AM82 °FPassing clouds.3 mph79%30.01 "HgN/A
11:00 PM
Sep 15
82 °FPassing clouds.6 mph79%30.01 "HgN/A
10:00 PM82 °FPassing clouds.7 mph74%30.04 "HgN/A
9:00 PM82 °FPassing clouds.6 mph74%30.01 "HgN/A
8:00 PM82 °FPassing clouds.7 mph74%30.01 "HgN/A
7:00 PM84 °FPassing clouds.8 mph74%29.98 "HgN/A
6:00 PM84 °FPassing clouds.8 mph66%29.98 "HgN/A
5:00 PM88 °FPassing clouds.6 mph59%29.95 "HgN/A
4:00 PM88 °FPassing clouds.7 mph55%29.95 "HgN/A
3:00 PM86 °FPassing clouds.12 mph70%29.95 "HgN/A
2:00 PM88 °FScattered clouds.9 mph66%29.98 "HgN/A
1:00 PM88 °FScattered clouds.8 mph62%29.98 "HgN/A
12:00 PM88 °FPassing clouds.8 mph66%30.01 "HgN/A
11:00 AM86 °FPassing clouds.8 mph70%30.04 "HgN/A
10:00 AM88 °FPassing clouds.7 mph62%30.04 "HgN/A
9:00 AM86 °FPassing clouds.3 mph66%30.04 "HgN/A
8:00 AM84 °FPassing clouds.5 mph70%30.01 "HgN/A
7:00 AM82 °FPassing clouds.3 mph74%30.01 "HgN/A
6:00 AM81 °FPassing clouds.5 mph79%29.98 "HgN/A
Weather by CustomWeather, © 2014

See weather overviewHow to use our weather pages